N14AD KSBP-KLAX

Flight info

Callsign N14AD
Flight time N/A
Altitude 18000
Route RZS VTU SADDE8
Aircraft C25C/M-SDE2E3FGHRWXY/LB1

Departure

Time 2026-05-06 22:01
Airport San Luis County Regional Airport (KSBP)

Arrival

Time N/A
Airport Los Angeles International Airport (KLAX)
Time Latitude Longitude Altitude Speed Heading
2026-05-06 21:45 35.23449 -120.63289 219 ft 0 kts 164°
2026-05-06 21:56 35.23443 -120.63291 221 ft 4 kts 218°
2026-05-06 21:57 35.23454 -120.63353 217 ft 5 kts 298°
2026-05-06 21:57 35.23452 -120.63363 216 ft 0 kts 217°
2026-05-06 21:57 35.23445 -120.63369 213 ft 6 kts 212°
2026-05-06 21:58 35.23399 -120.63320 215 ft 11 kts 127°
2026-05-06 21:58 35.23341 -120.63239 218 ft 8 kts 165°
2026-05-06 21:58 35.23329 -120.63240 218 ft 0 kts 197°
2026-05-06 22:00 35.23327 -120.63241 218 ft 2 kts 197°
2026-05-06 22:00 35.23297 -120.63261 218 ft 8 kts 221°
2026-05-06 22:01 35.23296 -120.63337 216 ft 21 kts 305°
2026-05-06 22:01 35.23598 -120.63858 228 ft 123 kts 306°
2026-05-06 22:01 35.24231 -120.64934 665 ft 172 kts 308°
2026-05-06 22:01 35.25231 -120.65510 1914 ft 165 kts
2026-05-06 22:02 35.26382 -120.65054 2868 ft 182 kts 19°
2026-05-06 22:02 35.27557 -120.64509 3921 ft 186 kts 21°
2026-05-06 22:02 35.28876 -120.63911 4048 ft 211 kts 22°
2026-05-06 22:02 35.30279 -120.63265 4033 ft 218 kts 22°
2026-05-06 22:03 35.31713 -120.62610 4020 ft 221 kts 21°
2026-05-06 22:03 35.33203 -120.62110 4061 ft 225 kts 13°
2026-05-06 22:03 35.34500 -120.61113 5147 ft 224 kts 54°
2026-05-06 22:03 35.34876 -120.59270 6256 ft 233 kts 95°
2026-05-06 22:04 35.34712 -120.58546 6631 ft 239 kts 110°
2026-05-06 22:06 35.34687 -120.58478 6651 ft 240 kts 112°
2026-05-06 22:06 35.34661 -120.58412 6678 ft 240 kts 114°
2026-05-06 22:06 35.34577 -120.58219 6790 ft 242 kts 117°
2026-05-06 22:07 35.34549 -120.58160 6963 ft 242 kts 119°
2026-05-06 22:07 35.33967 -120.57355 7335 ft 249 kts 139°
2026-05-06 22:07 35.33109 -120.56788 7888 ft 256 kts 161°
2026-05-06 22:07 35.31988 -120.56589 8522 ft 261 kts 177°
2026-05-06 22:08 35.30999 -120.56581 9084 ft 263 kts 180°
2026-05-06 22:08 35.29913 -120.56569 9665 ft 267 kts 174°
2026-05-06 22:08 35.29020 -120.56331 10176 ft 267 kts 159°
2026-05-06 22:08 35.27976 -120.55721 10794 ft 268 kts 147°
2026-05-06 22:09 35.27266 -120.55165 11279 ft 268 kts 143°
2026-05-06 22:09 35.26423 -120.54417 11863 ft 269 kts 139°
2026-05-06 22:09 35.25464 -120.53441 12585 ft 270 kts 136°
2026-05-06 22:09 35.24606 -120.52518 13278 ft 272 kts 135°
2026-05-06 22:10 35.23571 -120.51368 14073 ft 275 kts 134°
2026-05-06 22:10 35.22405 -120.50076 14916 ft 278 kts 135°
2026-05-06 22:10 35.21043 -120.48620 15844 ft 283 kts 135°
2026-05-06 22:10 35.19458 -120.47020 16869 ft 292 kts 137°
2026-05-06 22:11 35.17806 -120.45342 17021 ft 328 kts 136°
2026-05-06 22:11 35.16001 -120.43461 17023 ft 360 kts 136°
2026-05-06 22:11 35.14029 -120.41398 17023 ft 385 kts 136°
2026-05-06 22:11 35.11934 -120.39228 17027 ft 405 kts 137°
2026-05-06 22:12 35.09765 -120.37049 17030 ft 396 kts 137°
2026-05-06 22:12 35.07690 -120.34934 17022 ft 382 kts 136°
2026-05-06 22:12 35.05625 -120.32805 17019 ft 398 kts 136°
2026-05-06 22:12 35.03471 -120.30570 17023 ft 414 kts 136°
2026-05-06 22:13 35.01246 -120.28261 17021 ft 421 kts 136°
2026-05-06 22:13 34.98999 -120.25944 17026 ft 424 kts 137°
2026-05-06 22:13 34.96742 -120.23625 17019 ft 426 kts 137°
2026-05-06 22:13 34.94468 -120.21294 17015 ft 427 kts 137°
2026-05-06 22:14 34.92196 -120.18972 17018 ft 428 kts 137°
2026-05-06 22:14 34.89902 -120.16625 17024 ft 429 kts 137°
2026-05-06 22:14 34.87722 -120.14399 17004 ft 430 kts 137°
2026-05-06 22:14 34.85552 -120.12187 17007 ft 430 kts 137°
2026-05-06 22:15 34.83500 -120.10096 16998 ft 431 kts 137°
2026-05-06 22:15 34.81446 -120.08001 17009 ft 431 kts 137°
2026-05-06 22:15 34.79534 -120.06053 16991 ft 432 kts 137°
2026-05-06 22:15 34.77705 -120.04189 16991 ft 432 kts 137°
2026-05-06 22:16 34.76052 -120.02504 16990 ft 432 kts 137°
2026-05-06 22:16 34.74243 -120.00662 16984 ft 431 kts 137°
2026-05-06 22:16 34.72542 -119.98931 16998 ft 431 kts 137°
2026-05-06 22:16 34.70916 -119.97278 16998 ft 431 kts 137°
2026-05-06 22:17 34.69336 -119.95675 16990 ft 431 kts 137°
2026-05-06 22:17 34.67586 -119.93898 16990 ft 431 kts 137°
2026-05-06 22:17 34.65877 -119.92161 16988 ft 431 kts 137°
2026-05-06 22:17 34.64420 -119.90683 16994 ft 431 kts 137°
2026-05-06 22:18 34.62842 -119.89084 17001 ft 431 kts 137°
2026-05-06 22:18 34.61286 -119.87507 17005 ft 431 kts 137°
2026-05-06 22:18 34.59795 -119.85996 17012 ft 431 kts 137°
2026-05-06 22:18 34.58176 -119.84356 17010 ft 431 kts 137°
2026-05-06 22:19 34.56739 -119.82902 17014 ft 432 kts 137°
2026-05-06 22:19 34.55309 -119.81454 17002 ft 432 kts 137°
2026-05-06 22:19 34.53718 -119.79846 17021 ft 432 kts 137°
2026-05-06 22:19 34.52048 -119.78089 17004 ft 430 kts 131°
2026-05-06 22:20 34.50836 -119.76151 17014 ft 422 kts 116°
2026-05-06 22:20 34.49881 -119.73801 17004 ft 414 kts 110°
2026-05-06 22:20 34.49133 -119.71408 16987 ft 407 kts 106°
2026-05-06 22:20 34.48474 -119.68989 16996 ft 400 kts 104°
2026-05-06 22:21 34.47927 -119.66870 16996 ft 396 kts 104°
2026-05-06 22:21 34.47366 -119.64632 17009 ft 393 kts 103°
2026-05-06 22:21 34.46775 -119.62326 17008 ft 390 kts 104°
2026-05-06 22:21 34.46068 -119.59823 16999 ft 388 kts 107°
2026-05-06 22:22 34.45297 -119.57314 16985 ft 385 kts 107°